Regional Weather Roundup
Issued by NWS Kansas City/Pleasant Hill, MO

Home | Current Version | Previous Version | Graphics & Text | Print | Product List | Glossary Off
Versions: 1 2 3 4 5 6 7 8 9 10 11 12 13 14 15 16 17 18 19 20 21 22 23 24 25 26 27 28 29 30 31 32 33 34 35 36 37 38 39 40 41 42 43 44 45 46 47 48 49 50

000
ASUS43 KEAX 270511
RWREAX

WEATHER ROUNDUP FOR EASTERN KANSAS AND NORTHWEST MISSOURI
NATIONAL WEATHER SERVICE KANSAS CITY/PLEASANT HILL MO
1200 AM CDT WED MAY 27 2015

KSZ040-057-103>105-MOZ028-029-037-043-270600-
...KANSAS CITY METROPOLITAN AREA...

CITY           SKY/WX    TMP DP  RH WIND       PRES   REMARKS
K.C. INTL      FAIR      65  58  78 W7        29.94S
K.C. DOWNTOWN  PTCLDY    68  59  73 SW6       29.93S
LEES SUMMIT    MOCLDY    67  61  81 SW7       29.96R
OLATHE - IXD   MOCLDY    67  61  81 SW8       29.96S
OLATHE - OJC   MOCLDY    66  62  87 CALM      29.95S
LAWRENCE       PTCLDY    62  59  90 CALM      29.96R

$$

MOZ001>008-011>017-020>025-030>033-038>040-044>046-053-054-270600-
...NORTHERN AND CENTRAL MISSOURI...

CITY           SKY/WX    TMP DP  RH WIND       PRES   REMARKS
ST. JOSEPH     PTCLDY    62  59  90 W3        29.95R
MOSBY          PTCLDY    63  61  94 CALM      29.94R
WARRENSBURG    MOCLDY    68  63  83 S9        29.95S
WHITEMAN AFB   MOCLDY    68  63  84 SW10      29.95F
CLINTON        MOCLDY    68  64  88 SW3       29.97F
SEDALIA        MOCLDY    69  60  73 SW8       29.97F
WARSAW         NOT AVBL
CHILLICOTHE      N/A     64  61  90 CALM      29.93S
KIRKSVILLE     PTCLDY    60  59  96 S6        29.93S

$$

MOZ041-047>049-056>058-063>065-088>090-097-270600-
...EASTERN AND SOUTHERN MISSOURI...

CITY           SKY/WX    TMP DP  RH WIND       PRES   REMARKS
ST. LOUIS INTL CLEAR     72  60  66 S8        29.98S
SPIRIT OF STL  CLEAR    N/A N/A N/A S9        29.96F
COLUMBIA       MOCLDY    67  61  81 S9        29.96S
JEFFERSON CITY PTCLDY    70  60  70 S3        29.96S
ROLLA          PTCLDY    66  61  84 S12       29.98F
OSAGE BEACH    PTCLDY    66  61  82 S6        29.98S
SPRINGFIELD    MOCLDY    66  60  81 SE7       29.99F
BRANSON        MOCLDY    66  63  88 CALM      30.01F
JOPLIN         CLOUDY    67  64  90 NE5       29.98S THUNDER
WEST PLAINS    PTCLDY    67  62  84 S6        30.04F

$$

IAZ060-094-KSZ022-034>040-054-083-096-NEZ052-066-093-270600-
...KANSAS...SOUTHEAST NEBRASKA AND IOWA...

CITY           SKY/WX    TMP DP  RH WIND       PRES   REMARKS
TOPEKA         MOCLDY    65  59  81 W5        29.96S
MANHATTAN      PTCLDY    59  57  93 CALM      29.98S
EMPORIA        PTCLDY    63  59  87 W5        29.97S
CHANUTE        MOCLDY    65  64  97 CALM      29.98R
WICHITA        PTCLDY    63  60  90 S5        29.99R
OMAHA          CLEAR     58  56  93 NW3       29.93R
LINCOLN        CLEAR     61  53  75 NW3       29.95S
FALLS CITY     CLEAR     62  56  80 W8        29.95R
LAMONI         CLEAR     63  58  83 SW7       29.92S
DES MOINES     CLOUDY    62  58  86 W8        29.88S

$$



USA.gov is the U.S. government's official web portal to all federal, state and local government web resources and services.